Location: Bovenkerk
(52.2915°N, 4.8336°E)
Time: 23:06:54
(UTC+00:00)

Cosmos 1818 - Pass Details

Date: 09 April 2020
Orbit: 778 x 796 km, 65.0° (Epoch: 23 May)

Event Time Altitude Azimuth Distance (km) Brightness Sun altitude
Rises 19:36:36 0° 232° (SW) 3,277 7.1 -10.4°
Reaches altitude 10° 19:39:02 10° 235° (SW) 2,354 6.4 -10.7°
Maximum altitude 19:44:25 65° 317° (NW) 875 4.1 -11.4°
Drops below altitude 10° 19:49:51 10° 40° (NE) 2,375 6.0 -12.2°
Sets 19:52:19 0° 43° (NE) 3,308 6.7 -12.5°
